Location: Anjeux
(47.8815°N, 6.2076°E)
Time: 21:02:04
(UTC+00:00)

SeaSat 1 - Pass Details

Date: 05 March 2021
Orbit: 744 x 747 km, 108.0° (Epoch: 20 April)

Event Time Altitude Azimuth Distance (km) Brightness Sun altitude
Rises 04:27:36 0° 155° (SSE) 3,172 5.9 -17.6°
Reaches altitude 10° 04:29:52 10° 158° (SSE) 2,253 5.1 -17.3°
Maximum altitude 04:34:45 73° 243° (WSW) 784 2.3 -16.4°
Drops below altitude 10° 04:39:42 10° 328° (NNW) 2,271 4.7 -15.6°
Sets 04:41:59 0° 330° (NNW) 3,199 5.5 -15.2°
